{"data":{"norad_id":33396,"epoch":"2026-09-20T03:42:11.545056Z","epoch_age_seconds":47972,"freshness":"FRESH","line1":"1 33396U 08049A   26263.15430029 -.00000128  00000+0 -40232-4 0  9995","line2":"2 33396  98.5473 317.3079 0001309  87.1022 273.0305 14.20142442931440","mean_motion":14.20142442,"eccentricity":0.0001309,"inclination_deg":98.5473,"raan_deg":317.3079,"arg_perigee_deg":87.1022,"mean_anomaly_deg":273.0305,"bstar":-4.0232e-5,"rev_number":93144,"period_min":101.39827931429,"perigee_km":823.92823093703,"apogee_km":825.81397845884,"semimajor_km":7203.0081046979,"source":"CELESTRAK","updated_at":"2026-09-20T09:00:33.888673Z"}}